Time,TemperatureF,DewpointF,PressureIn,WindDirection,WindDirectionDegrees,WindSpeedMPH,WindSpeedGustMPH,Humidity,HourlyPrecipIn,Conditions,Clouds,dailyrainin,SoftwareType,DateUTC
2013-04-19 00:01:00,69.2,61.3,29.95,SSW,211,11.5,11.5,76,0.00,CLR,,0.00,WeatherDisplay:10.37,2013-04-19 04:01:00,
2013-04-19 00:06:00,69.1,61.6,29.95,West,271,6.9,6.9,77,0.00,CLR,,0.00,WeatherDisplay:10.37,2013-04-19 04:06:00,
2013-04-19 00:11:00,69.0,61.5,29.95,SSE,160,5.8,5.8,77,0.00,CLR,,0.00,WeatherDisplay:10.37,2013-04-19 04:11:00,
2013-04-19 00:16:00,68.9,61.4,29.95,South,180,4.6,4.6,77,0.00,CLR,,0.00,WeatherDisplay:10.37,2013-04-19 04:16:00,
2013-04-19 00:21:00,68.8,61.3,29.95,South,180,10.4,10.4,77,0.00,CLR,,0.00,WeatherDisplay:10.37,2013-04-19 04:21:00,
2013-04-19 00:26:00,68.7,61.6,29.95,WSW,250,10.4,10.4,78,0.00,CLR,,0.00,WeatherDisplay:10.37,2013-04-19 04:26:00,
2013-04-19 00:31:00,68.6,61.5,29.95,ESE,117,10.4,10.4,78,0.00,CLR,,0.00,WeatherDisplay:10.37,2013-04-19 04:31:00,
2013-04-19 00:36:00,68.5,61.4,29.95,South,181,3.5,3.5,78,0.00,CLR,,0.00,WeatherDisplay:10.37,2013-04-19 04:36:00,
2013-04-19 00:41:00,68.4,61.6,29.95,ESE,119,4.6,4.6,79,0.00,CLR,,0.00,WeatherDisplay:10.37,2013-04-19 04:41:00,
2013-04-19 00:46:00,68.3,61.5,29.95,WSW,254,3.5,3.5,79,0.00,CLR,,0.00,WeatherDisplay:10.37,2013-04-19 04:46:00,
2013-04-19 00:51:00,68.1,61.3,29.95,SSW,200,4.6,4.6,79,0.00,CLR,,0.00,WeatherDisplay:10.37,2013-04-19 04:51:00,
2013-04-19 00:56:00,67.9,61.5,29.94,SE,140,5.0,5.0,80,0.00,CLR,,0.00,WeatherDisplay:10.37,2013-04-19 04:56:00,
2013-04-19 01:01:00,67.8,61.4,29.94,SE,128,6.9,6.9,80,0.00,CLR,,0.00,WeatherDisplay:10.37,2013-04-19 05:01:00,
2013-04-19 01:06:00,67.6,61.2,29.93,ESE,107,11.5,11.5,80,0.00,CLR,,0.00,WeatherDisplay:10.37,2013-04-19 05:06:00,
2013-04-19 01:11:00,67.5,61.1,29.93,SSW,213,5.8,5.8,80,0.00,CLR,,0.00,WeatherDisplay:10.37,2013-04-19 05:11:00,
2013-04-19 01:16:00,67.4,61.4,29.93,WSW,240,3.5,3.5,81,0.00,CLR,,0.00,WeatherDisplay:10.37,2013-04-19 05:16:00,
2013-04-19 01:21:00,67.2,61.2,29.94,SSW,205,11.5,11.5,81,0.00,CLR,,0.00,WeatherDisplay:10.37,2013-04-19 05:21:00,
2013-04-19 01:26:00,67.0,61.3,29.93,South,184,6.9,6.9,82,0.00,CLR,,0.00,WeatherDisplay:10.37,2013-04-19 05:26:00,
2013-04-19 01:31:00,66.9,61.2,29.93,SSE,161,5.8,5.8,82,0.00,CLR,,0.00,WeatherDisplay:10.37,2013-04-19 05:31:00,
2013-04-19 01:36:00,66.8,61.1,29.93,ESE,103,4.6,4.6,82,0.00,CLR,,0.00,WeatherDisplay:10.37,2013-04-19 05:36:00,
2013-04-19 01:41:00,66.7,61.4,29.93,SSW,199,5.8,5.8,83,0.00,CLR,,0.00,WeatherDisplay:10.37,2013-04-19 05:41:00,
2013-04-19 01:46:00,66.6,61.3,29.93,SW,232,4.0,4.0,83,0.00,CLR,,0.00,WeatherDisplay:10.37,2013-04-19 05:46:00,
2013-04-19 01:51:00,66.4,61.1,29.92,SSW,204,6.0,6.0,83,0.00,CLR,,0.00,WeatherDisplay:10.37,2013-04-19 05:51:00,
2013-04-19 01:56:00,66.3,61.3,29.92,SW,227,5.0,5.0,84,0.00,CLR,,0.00,WeatherDisplay:10.37,2013-04-19 05:56:00,
2013-04-19 02:01:00,66.2,61.2,29.92,SSE,150,6.9,6.9,84,0.00,CLR,,0.00,WeatherDisplay:10.37,2013-04-19 06:01:00,
2013-04-19 02:06:00,66.1,61.5,29.92,NE,40,3.5,3.5,85,0.00,CLR,,0.00,WeatherDisplay:10.37,2013-04-19 06:06:00,
2013-04-19 02:11:00,66.1,61.5,29.92,SE,134,3.5,3.5,85,0.00,CLR,,0.00,WeatherDisplay:10.37,2013-04-19 06:11:00,
2013-04-19 02:16:00,66.0,61.4,29.91,SSW,200,10.4,10.4,85,0.00,CLR,,0.00,WeatherDisplay:10.37,2013-04-19 06:16:00,
2013-04-19 02:21:00,66.0,61.4,29.91,SSE,163,6.0,6.0,85,0.00,CLR,,0.00,WeatherDisplay:10.37,2013-04-19 06:21:00,
2013-04-19 02:26:00,66.0,61.7,29.91,South,182,4.6,4.6,86,0.00,CLR,,0.00,WeatherDisplay:10.37,2013-04-19 06:26:00,
2013-04-19 02:31:00,66.0,61.7,29.91,South,171,12.7,12.7,86,0.00,CLR,,0.00,WeatherDisplay:10.37,2013-04-19 06:31:00,
2013-04-19 02:36:00,65.9,61.6,29.90,SW,217,10.4,10.4,86,0.00,CLR,,0.00,WeatherDisplay:10.37,2013-04-19 06:36:00,
2013-04-19 02:41:00,65.9,61.6,29.90,ESE,117,10.4,10.4,86,0.00,CLR,,0.00,WeatherDisplay:10.37,2013-04-19 06:41:00,
2013-04-19 02:46:00,65.9,61.9,29.90,SSE,165,3.5,3.5,87,0.00,CLR,,0.00,WeatherDisplay:10.37,2013-04-19 06:46:00,
2013-04-19 02:51:00,65.9,61.9,29.89,South,186,6.9,6.9,87,0.00,CLR,,0.00,WeatherDisplay:10.37,2013-04-19 06:51:00,
2013-04-19 02:56:00,65.8,61.8,29.89,WSW,256,12.0,12.0,87,0.00,CLR,,0.00,WeatherDisplay:10.37,2013-04-19 06:56:00,
2013-04-19 03:01:00,65.8,61.8,29.89,SSW,192,3.5,3.5,87,0.00,CLR,,0.00,WeatherDisplay:10.37,2013-04-19 07:01:00,
2013-04-19 03:06:00,65.8,61.8,29.89,SE,144,10.4,10.4,87,0.00,CLR,,0.00,WeatherDisplay:10.37,2013-04-19 07:06:00,
2013-04-19 03:11:00,65.8,61.8,29.89,SSE,166,5.8,5.8,87,0.00,CLR,,0.00,WeatherDisplay:10.37,2013-04-19 07:11:00,
2013-04-19 03:16:00,65.8,61.8,29.88,South,191,5.8,5.8,87,0.00,CLR,,0.00,WeatherDisplay:10.37,2013-04-19 07:16:00,
2013-04-19 03:21:00,65.8,61.8,29.88,SSW,202,4.6,4.6,87,0.00,CLR,,0.00,WeatherDisplay:10.37,2013-04-19 07:21:00,
2013-04-19 03:26:00,65.9,61.9,29.88,WSW,256,3.5,3.5,87,0.00,CLR,,0.00,WeatherDisplay:10.37,2013-04-19 07:26:00,
2013-04-19 03:31:00,65.9,61.9,29.88,SSE,157,4.6,4.6,87,0.00,CLR,,0.00,WeatherDisplay:10.37,2013-04-19 07:31:00,
2013-04-19 03:36:00,65.9,62.2,29.88,South,173,10.4,10.4,88,0.00,CLR,,0.00,WeatherDisplay:10.37,2013-04-19 07:36:00,
2013-04-19 03:41:00,65.9,62.2,29.88,ESE,118,13.0,13.0,88,0.00,CLR,,0.00,WeatherDisplay:10.37,2013-04-19 07:41:00,
2013-04-19 03:46:00,65.9,61.9,29.88,SE,146,6.9,6.9,87,0.00,CLR,,0.00,WeatherDisplay:10.37,2013-04-19 07:46:00,
2013-04-19 03:51:00,66.0,62.0,29.88,SSW,198,4.6,4.6,87,0.00,CLR,,0.00,WeatherDisplay:10.37,2013-04-19 07:51:00,
2013-04-19 03:56:00,65.9,61.9,29.88,SE,132,10.4,10.4,87,0.00,CLR,,0.00,WeatherDisplay:10.37,2013-04-19 07:56:00,
2013-04-19 04:01:00,65.9,61.9,29.88,SSW,204,3.5,3.5,87,0.00,CLR,,0.00,WeatherDisplay:10.37,2013-04-19 08:01:00,
2013-04-19 04:06:00,65.9,61.9,29.88,SE,126,7.0,7.0,87,0.00,CLR,,0.00,WeatherDisplay:10.37,2013-04-19 08:06:00,
2013-04-19 04:11:00,65.9,62.2,29.87,WSW,250,5.8,5.8,88,0.00,CLR,,0.00,WeatherDisplay:10.37,2013-04-19 08:11:00,
2013-04-19 04:16:00,65.9,62.2,29.87,South,190,6.9,6.9,88,0.00,CLR,,0.00,WeatherDisplay:10.37,2013-04-19 08:16:00,
2013-04-19 04:21:00,65.9,62.2,29.87,WSW,248,4.0,4.0,88,0.00,CLR,,0.00,WeatherDisplay:10.37,2013-04-19 08:21:00,
2013-04-19 04:26:00,65.8,62.1,29.87,SW,233,4.6,4.6,88,0.00,CLR,,0.00,WeatherDisplay:10.37,2013-04-19 08:26:00,
2013-04-19 04:31:00,65.8,62.1,29.86,SSE,153,3.5,3.5,88,0.00,CLR,,0.00,WeatherDisplay:10.37,2013-04-19 08:31:00,
2013-04-19 04:36:00,65.8,62.5,29.86,ESE,123,3.5,3.5,89,0.00,CLR,,0.00,WeatherDisplay:10.37,2013-04-19 08:36:00,
2013-04-19 04:41:00,65.7,62.0,29.86,SSW,202,4.0,4.0,88,0.00,CLR,,0.00,WeatherDisplay:10.37,2013-04-19 08:41:00,
2013-04-19 04:46:00,65.7,62.0,29.86,ESE,121,6.0,6.0,88,0.00,CLR,,0.00,WeatherDisplay:10.37,2013-04-19 08:46:00,
2013-04-19 04:51:00,65.7,62.0,29.85,SSE,165,3.5,3.5,88,0.00,CLR,,0.00,WeatherDisplay:10.37,2013-04-19 08:51:00,
2013-04-19 04:56:00,65.7,62.0,29.85,WNW,298,3.5,3.5,88,0.00,CLR,,0.00,WeatherDisplay:10.37,2013-04-19 08:56:00,
2013-04-19 05:01:00,65.7,62.0,29.85,South,178,7.0,7.0,88,0.00,CLR,,0.00,WeatherDisplay:10.37,2013-04-19 09:01:00,
2013-04-19 05:06:00,65.7,62.4,29.85,South,171,6.9,6.9,89,0.00,CLR,,0.00,WeatherDisplay:10.37,2013-04-19 09:06:00,
2013-04-19 05:11:00,65.7,62.4,29.85,SSW,200,5.0,5.0,89,0.00,CLR,,0.00,WeatherDisplay:10.37,2013-04-19 09:11:00,
2013-04-19 05:16:00,65.7,62.4,29.85,South,183,3.5,3.5,89,0.00,CLR,,0.00,WeatherDisplay:10.37,2013-04-19 09:16:00,
2013-04-19 05:21:00,65.8,62.5,29.85,SW,223,10.0,10.0,89,0.00,CLR,,0.00,WeatherDisplay:10.37,2013-04-19 09:21:00,
2013-04-19 05:26:00,65.8,62.5,29.84,WSW,239,5.8,5.8,89,0.00,CLR,,0.00,WeatherDisplay:10.37,2013-04-19 09:26:00,
2013-04-19 05:31:00,65.8,62.5,29.84,WSW,246,5.0,5.0,89,0.00,CLR,,0.00,WeatherDisplay:10.37,2013-04-19 09:31:00,
2013-04-19 05:36:00,65.8,62.5,29.84,SSE,148,4.6,4.6,89,0.00,CLR,,0.00,WeatherDisplay:10.37,2013-04-19 09:36:00,
2013-04-19 05:41:00,65.8,62.5,29.84,South,183,2.3,2.3,89,0.00,CLR,,0.00,WeatherDisplay:10.37,2013-04-19 09:41:00,
2013-04-19 05:46:00,65.8,62.5,29.84,South,188,8.1,8.1,89,0.00,CLR,,0.00,WeatherDisplay:10.37,2013-04-19 09:46:00,
2013-04-19 05:51:00,65.9,62.6,29.84,South,186,10.4,10.4,89,0.00,CLR,,0.00,WeatherDisplay:10.37,2013-04-19 09:51:00,
2013-04-19 05:56:00,65.8,62.5,29.84,WNW,303,3.5,3.5,89,0.00,CLR,,0.00,WeatherDisplay:10.37,2013-04-19 09:56:00,
2013-04-19 06:01:00,65.8,62.5,29.83,WNW,284,11.5,11.5,89,0.00,CLR,,0.00,WeatherDisplay:10.37,2013-04-19 10:01:00,
2013-04-19 06:06:00,65.7,62.4,29.84,SE,131,4.6,4.6,89,0.00,CLR,,0.00,WeatherDisplay:10.37,2013-04-19 10:06:00,
2013-04-19 06:11:00,65.7,62.4,29.84,SW,217,9.2,9.2,89,0.00,CLR,,0.00,WeatherDisplay:10.37,2013-04-19 10:11:00,
2013-04-19 06:16:00,65.7,62.4,29.84,SW,233,3.5,3.5,89,0.00,CLR,,0.00,WeatherDisplay:10.37,2013-04-19 10:16:00,
2013-04-19 06:21:00,65.7,62.4,29.84,WSW,242,4.6,4.6,89,0.00,CLR,,0.00,WeatherDisplay:10.37,2013-04-19 10:21:00,
2013-04-19 06:26:00,65.8,62.5,29.84,SW,215,9.2,9.2,89,0.00,CLR,,0.00,WeatherDisplay:10.37,2013-04-19 10:26:00,
2013-04-19 06:31:00,65.8,62.5,29.84,SE,142,8.1,8.1,89,0.00,CLR,,0.00,WeatherDisplay:10.37,2013-04-19 10:31:00,
2013-04-19 06:36:00,65.8,62.5,29.84,SW,214,4.6,4.6,89,0.00,CLR,,0.00,WeatherDisplay:10.37,2013-04-19 10:36:00,
2013-04-19 06:41:00,65.8,62.5,29.83,West,267,3.5,3.5,89,0.00,CLR,,0.00,WeatherDisplay:10.37,2013-04-19 10:41:00,
2013-04-19 06:46:00,65.7,62.4,29.84,SW,219,9.2,9.2,89,0.00,CLR,,0.00,WeatherDisplay:10.37,2013-04-19 10:46:00,
2013-04-19 06:51:00,65.6,62.3,29.84,SSE,168,9.2,9.2,89,0.00,CLR,,0.00,WeatherDisplay:10.37,2013-04-19 10:51:00,
2013-04-19 06:56:00,65.6,62.3,29.84,SSW,201,9.2,9.2,89,0.00,CLR,,0.00,WeatherDisplay:10.37,2013-04-19 10:56:00,
2013-04-19 07:01:00,65.6,62.3,29.84,SSW,211,10.4,10.4,89,0.00,CLR,,0.00,WeatherDisplay:10.37,2013-04-19 11:01:00,
2013-04-19 07:06:00,65.6,62.3,29.84,SSW,209,6.9,6.9,89,0.00,CLR,,0.00,WeatherDisplay:10.37,2013-04-19 11:06:00,
2013-04-19 07:11:00,65.6,62.3,29.84,South,177,6.0,6.0,89,0.00,CLR,,0.00,WeatherDisplay:10.37,2013-04-19 11:11:00,
2013-04-19 07:16:00,65.7,62.4,29.84,SW,215,4.6,4.6,89,0.00,CLR,,0.00,WeatherDisplay:10.37,2013-04-19 11:16:00,
2013-04-19 07:21:00,65.7,62.4,29.85,South,180,5.8,5.8,89,0.00,CLR,,0.00,WeatherDisplay:10.37,2013-04-19 11:21:00,
2013-04-19 07:26:00,65.8,62.5,29.85,South,184,11.5,11.5,89,0.00,CLR,,0.00,WeatherDisplay:10.37,2013-04-19 11:26:00,
2013-04-19 07:31:00,65.8,62.5,29.85,SW,232,4.6,4.6,89,0.00,CLR,,0.00,WeatherDisplay:10.37,2013-04-19 11:31:00,
2013-04-19 07:36:00,65.9,62.6,29.85,South,186,3.0,3.0,89,0.00,CLR,,0.00,WeatherDisplay:10.37,2013-04-19 11:36:00,
2013-04-19 07:41:00,65.9,62.6,29.85,SSE,147,2.3,0.0,89,0.00,CLR,,0.00,WeatherDisplay:10.37,2013-04-19 11:41:00,
2013-04-19 07:46:00,65.9,62.6,29.85,West,265,3.5,3.5,89,0.00,CLR,,0.00,WeatherDisplay:10.37,2013-04-19 11:46:00,
2013-04-19 07:51:00,66.0,62.7,29.85,SSW,193,6.9,6.9,89,0.00,CLR,,0.00,WeatherDisplay:10.37,2013-04-19 11:51:00,
2013-04-19 07:56:00,66.1,62.8,29.85,SW,226,6.9,6.9,89,0.00,CLR,,0.00,WeatherDisplay:10.37,2013-04-19 11:56:00,
2013-04-19 08:01:00,66.2,62.9,29.85,SW,232,2.3,0.0,89,0.00,CLR,,0.00,WeatherDisplay:10.37,2013-04-19 12:01:00,
2013-04-19 08:06:00,66.3,63.0,29.85,SSW,213,4.0,4.0,89,0.00,CLR,,0.00,WeatherDisplay:10.37,2013-04-19 12:06:00,
2013-04-19 08:11:00,66.4,63.1,29.85,SW,214,5.8,5.8,89,0.00,CLR,,0.00,WeatherDisplay:10.37,2013-04-19 12:11:00,
2013-04-19 08:16:00,66.5,63.2,29.85,South,173,2.3,2.3,89,0.00,CLR,,0.00,WeatherDisplay:10.37,2013-04-19 12:16:00,
2013-04-19 08:21:00,66.6,63.3,29.85,SW,214,6.9,6.9,89,0.00,CLR,,0.00,WeatherDisplay:10.37,2013-04-19 12:21:00,
2013-04-19 08:26:00,66.7,63.4,29.85,SW,229,6.9,6.9,89,0.00,CLR,,0.00,WeatherDisplay:10.37,2013-04-19 12:26:00,
2013-04-19 08:31:00,66.7,63.4,29.85,West,277,5.8,5.8,89,0.00,CLR,,0.00,WeatherDisplay:10.37,2013-04-19 12:31:00,
2013-04-19 08:36:00,66.8,63.5,29.86,WSW,247,5.8,5.8,89,0.00,CLR,,0.00,WeatherDisplay:10.37,2013-04-19 12:36:00,
2013-04-19 08:41:00,67.0,63.6,29.85,SW,227,6.9,6.9,89,0.00,CLR,,0.00,WeatherDisplay:10.37,2013-04-19 12:41:00,
2013-04-19 08:46:00,67.1,63.4,29.85,SW,225,10.4,10.4,88,0.00,CLR,,0.00,WeatherDisplay:10.37,2013-04-19 12:46:00,
2013-04-19 08:51:00,67.2,63.5,29.86,South,180,12.7,12.7,88,0.00,CLR,,0.00,WeatherDisplay:10.37,2013-04-19 12:51:00,
2013-04-19 08:56:00,67.4,63.7,29.85,WSW,246,10.4,10.4,88,0.00,CLR,,0.00,WeatherDisplay:10.37,2013-04-19 12:56:00,
2013-04-19 09:01:00,67.4,63.7,29.85,SSE,150,6.9,6.9,88,0.00,CLR,,0.00,WeatherDisplay:10.37,2013-04-19 13:01:00,
2013-04-19 09:06:00,67.6,63.9,29.84,WSW,241,5.8,5.8,88,0.00,CLR,,0.00,WeatherDisplay:10.37,2013-04-19 13:06:00,
2013-04-19 09:11:00,67.8,64.1,29.84,South,175,3.5,3.5,88,0.00,CLR,,0.00,WeatherDisplay:10.37,2013-04-19 13:11:00,
2013-04-19 09:16:00,67.9,64.2,29.84,South,171,5.8,5.8,88,0.00,CLR,,0.00,WeatherDisplay:10.37,2013-04-19 13:16:00,
2013-04-19 09:21:00,68.1,64.1,29.83,East,94,11.5,11.5,87,0.00,CLR,,0.00,WeatherDisplay:10.37,2013-04-19 13:21:00,
2013-04-19 09:26:00,68.3,64.3,29.83,West,277,12.7,12.7,87,0.00,CLR,,0.00,WeatherDisplay:10.37,2013-04-19 13:26:00,
2013-04-19 09:31:00,68.5,64.5,29.83,WSW,244,16.1,16.1,87,0.00,CLR,,0.00,WeatherDisplay:10.37,2013-04-19 13:31:00,
2013-04-19 09:36:00,68.7,64.3,29.83,WSW,249,10.4,10.4,86,0.00,CLR,,0.00,WeatherDisplay:10.37,2013-04-19 13:36:00,
2013-04-19 09:41:00,68.8,64.4,29.83,WNW,292,3.5,3.5,86,0.00,CLR,,0.00,WeatherDisplay:10.37,2013-04-19 13:41:00,
2013-04-19 09:46:00,68.8,64.4,29.82,SSW,193,5.8,5.8,86,0.00,CLR,,0.00,WeatherDisplay:10.37,2013-04-19 13:46:00,
2013-04-19 09:51:00,68.8,64.4,29.82,WSW,237,9.0,9.0,86,0.00,CLR,,0.00,WeatherDisplay:10.37,2013-04-19 13:51:00,
2013-04-19 09:56:00,68.8,64.4,29.82,SW,226,11.5,11.5,86,0.00,CLR,,0.00,WeatherDisplay:10.37,2013-04-19 13:56:00,
2013-04-19 10:01:00,68.8,64.4,29.83,ESE,117,12.7,12.7,86,0.00,CLR,,0.00,WeatherDisplay:10.37,2013-04-19 14:01:00,
2013-04-19 10:06:00,68.8,64.4,29.83,SW,217,10.4,10.4,86,0.00,CLR,,0.00,WeatherDisplay:10.37,2013-04-19 14:06:00,
2013-04-19 10:11:00,68.9,64.5,29.83,West,277,3.5,3.5,86,0.00,CLR,,0.00,WeatherDisplay:10.37,2013-04-19 14:11:00,
2013-04-19 10:16:00,69.0,64.6,29.82,SSW,194,3.5,3.5,86,0.00,CLR,,0.00,WeatherDisplay:10.37,2013-04-19 14:16:00,
2013-04-19 10:21:00,69.1,64.7,29.82,South,182,10.4,10.4,86,0.00,CLR,,0.00,WeatherDisplay:10.37,2013-04-19 14:21:00,
2013-04-19 10:26:00,69.3,64.9,29.82,SW,217,6.9,6.9,86,0.00,CLR,,0.00,WeatherDisplay:10.37,2013-04-19 14:26:00,
2013-04-19 10:31:00,69.6,64.9,29.82,SW,218,16.1,16.1,85,0.00,CLR,,0.00,WeatherDisplay:10.37,2013-04-19 14:31:00,
2013-04-19 10:36:00,69.7,65.0,29.81,WSW,253,11.5,11.5,85,0.00,CLR,,0.00,WeatherDisplay:10.37,2013-04-19 14:36:00,
2013-04-19 10:41:00,69.9,65.2,29.80,SE,125,1.2,1.2,85,0.00,CLR,,0.00,WeatherDisplay:10.37,2013-04-19 14:41:00,
2013-04-19 10:46:00,70.4,65.3,29.81,WSW,238,12.7,12.7,84,0.00,CLR,,0.00,WeatherDisplay:10.37,2013-04-19 14:46:00,
2013-04-19 10:51:00,70.6,65.2,29.81,SSW,211,18.4,18.4,83,0.00,CLR,,0.00,WeatherDisplay:10.37,2013-04-19 14:51:00,
2013-04-19 10:56:00,70.7,65.3,29.81,SW,215,10.4,10.4,83,0.00,CLR,,0.00,WeatherDisplay:10.37,2013-04-19 14:56:00,
2013-04-19 11:01:00,70.7,65.3,29.81,WNW,284,10.4,10.4,83,0.00,CLR,,0.00,WeatherDisplay:10.37,2013-04-19 15:01:00,
2013-04-19 11:06:00,70.7,65.3,29.81,West,275,10.4,10.4,83,0.00,CLR,,0.00,WeatherDisplay:10.37,2013-04-19 15:06:00,
2013-04-19 11:11:00,70.7,65.3,29.81,WSW,243,13.8,13.8,83,0.00,CLR,,0.00,WeatherDisplay:10.37,2013-04-19 15:11:00,
2013-04-19 11:16:00,70.7,65.3,29.81,East,101,13.8,13.8,83,0.00,CLR,,0.00,WeatherDisplay:10.37,2013-04-19 15:16:00,
2013-04-19 11:21:00,70.7,65.6,29.81,SW,234,4.6,4.6,84,0.00,CLR,,0.00,WeatherDisplay:10.37,2013-04-19 15:21:00,
2013-04-19 11:26:00,70.8,65.7,29.80,SSE,155,10.0,10.0,84,0.00,CLR,,0.00,WeatherDisplay:10.37,2013-04-19 15:26:00,
2013-04-19 11:31:00,71.4,66.3,29.79,SSW,203,13.8,13.8,84,0.00,CLR,,0.00,WeatherDisplay:10.37,2013-04-19 15:31:00,
2013-04-19 11:36:00,72.0,65.8,29.78,SW,221,10.4,10.4,81,0.00,CLR,,0.00,WeatherDisplay:10.37,2013-04-19 15:36:00,
2013-04-19 11:41:00,72.2,66.0,29.78,WSW,256,15.0,15.0,81,0.00,CLR,,0.00,WeatherDisplay:10.37,2013-04-19 15:41:00,
2013-04-19 11:46:00,72.4,65.9,29.78,SE,134,10.4,10.4,80,0.00,CLR,,0.00,WeatherDisplay:10.37,2013-04-19 15:46:00,
2013-04-19 11:51:00,72.5,66.0,29.78,SSW,195,9.2,9.2,80,0.00,CLR,,0.00,WeatherDisplay:10.37,2013-04-19 15:51:00,
2013-04-19 11:56:00,72.6,66.1,29.78,WSW,256,5.8,5.8,80,0.00,CLR,,0.00,WeatherDisplay:10.37,2013-04-19 15:56:00,
2013-04-19 12:01:00,72.5,65.6,29.77,SSW,197,9.2,9.2,79,0.00,CLR,,0.00,WeatherDisplay:10.37,2013-04-19 16:01:00,
2013-04-19 12:06:00,72.5,65.6,29.77,South,180,4.6,4.6,79,0.00,CLR,,0.00,WeatherDisplay:10.37,2013-04-19 16:06:00,
2013-04-19 12:11:00,72.6,66.1,29.77,South,190,6.9,6.9,80,0.00,CLR,,0.00,WeatherDisplay:10.37,2013-04-19 16:11:00,
2013-04-19 12:16:00,72.6,65.7,29.76,ESE,111,10.4,10.4,79,0.00,CLR,,0.00,WeatherDisplay:10.37,2013-04-19 16:16:00,
2013-04-19 12:21:00,72.6,65.3,29.76,WSW,257,13.8,13.8,78,0.00,CLR,,0.00,WeatherDisplay:10.37,2013-04-19 16:21:00,
2013-04-19 12:26:00,72.7,65.4,29.75,SSE,161,13.8,13.8,78,0.00,CLR,,0.00,WeatherDisplay:10.37,2013-04-19 16:26:00,
2013-04-19 12:31:00,72.7,65.4,29.75,WSW,240,3.5,4.7,78,0.00,CLR,,0.00,WeatherDisplay:10.37,2013-04-19 16:31:00,
2013-04-19 12:36:00,72.8,65.5,29.75,East,95,11.5,11.5,78,0.00,CLR,,0.00,WeatherDisplay:10.37,2013-04-19 16:36:00,
2013-04-19 12:41:00,72.9,65.6,29.75,SW,232,7.0,7.0,78,0.00,CLR,,0.00,WeatherDisplay:10.37,2013-04-19 16:41:00,
2013-04-19 12:46:00,73.0,65.7,29.74,South,171,15.0,15.0,78,0.00,CLR,,0.00,WeatherDisplay:10.37,2013-04-19 16:46:00,
2013-04-19 12:51:00,73.0,65.7,29.74,South,180,6.9,6.9,78,0.00,CLR,,0.00,WeatherDisplay:10.37,2013-04-19 16:51:00,
2013-04-19 12:56:00,73.1,66.2,29.74,SSE,167,5.8,5.8,79,0.00,CLR,,0.00,WeatherDisplay:10.37,2013-04-19 16:56:00,
2013-04-19 13:01:00,73.3,66.0,29.74,SW,236,10.4,10.4,78,0.00,CLR,,0.00,WeatherDisplay:10.37,2013-04-19 17:01:00,
2013-04-19 13:06:00,73.5,66.2,29.73,SSW,202,12.7,12.7,78,0.00,CLR,,0.00,WeatherDisplay:10.37,2013-04-19 17:06:00,
2013-04-19 13:11:00,73.6,66.3,29.73,SE,139,3.5,3.5,78,0.00,CLR,,0.00,WeatherDisplay:10.37,2013-04-19 17:11:00,
2013-04-19 13:16:00,73.7,66.4,29.73,SSE,154,3.5,3.8,78,0.00,CLR,,0.00,WeatherDisplay:10.37,2013-04-19 17:16:00,
2013-04-19 13:21:00,73.7,66.4,29.73,SSE,147,6.9,6.9,78,0.00,CLR,,0.00,WeatherDisplay:10.37,2013-04-19 17:21:00,
2013-04-19 13:26:00,73.7,66.4,29.72,WSW,243,4.0,4.0,78,0.00,CLR,,0.00,WeatherDisplay:10.37,2013-04-19 17:26:00,
2013-04-19 13:31:00,73.7,66.4,29.72,ENE,68,11.5,11.5,78,0.00,CLR,,0.00,WeatherDisplay:10.37,2013-04-19 17:31:00,
2013-04-19 13:36:00,73.7,66.4,29.72,ENE,57,12.7,12.7,78,0.00,CLR,,0.00,WeatherDisplay:10.37,2013-04-19 17:36:00,
2013-04-19 13:41:00,73.7,66.4,29.71,SSE,166,3.5,4.2,78,0.00,CLR,,0.00,WeatherDisplay:10.37,2013-04-19 17:41:00,
2013-04-19 13:46:00,73.7,66.0,29.71,WSW,244,3.5,3.5,77,0.00,CLR,,0.00,WeatherDisplay:10.37,2013-04-19 17:46:00,
2013-04-19 13:51:00,73.8,66.1,29.71,West,269,11.5,11.5,77,0.00,CLR,,0.00,WeatherDisplay:10.37,2013-04-19 17:51:00,
2013-04-19 13:56:00,73.8,65.8,29.71,South,183,5.8,5.8,76,0.00,CLR,,0.00,WeatherDisplay:10.37,2013-04-19 17:56:00,
2013-04-19 14:01:00,73.9,65.5,29.71,South,182,11.5,11.5,75,0.00,CLR,,0.00,WeatherDisplay:10.37,2013-04-19 18:01:00,
2013-04-19 14:06:00,74.0,65.6,29.71,ESE,117,5.0,5.0,75,0.00,CLR,,0.00,WeatherDisplay:10.37,2013-04-19 18:06:00,
2013-04-19 14:11:00,74.3,65.5,29.71,SW,226,29.9,29.9,74,0.00,CLR,,0.00,WeatherDisplay:10.37,2013-04-19 18:11:00,
2013-04-19 14:16:00,74.6,65.4,29.71,South,188,17.3,17.3,73,0.00,CLR,,0.00,WeatherDisplay:10.37,2013-04-19 18:16:00,
2013-04-19 14:21:00,74.9,65.3,29.72,WNW,291,16.1,16.1,72,0.00,CLR,,0.00,WeatherDisplay:10.37,2013-04-19 18:21:00,
2013-04-19 14:26:00,75.0,65.0,29.72,SW,217,12.7,12.7,71,0.00,CLR,,0.00,WeatherDisplay:10.37,2013-04-19 18:26:00,
2013-04-19 14:31:00,75.1,65.1,29.72,SSW,212,9.2,9.2,71,0.00,CLR,,0.00,WeatherDisplay:10.37,2013-04-19 18:31:00,
2013-04-19 14:36:00,75.1,65.1,29.72,SSE,163,5.8,7.7,71,0.00,CLR,,0.00,WeatherDisplay:10.37,2013-04-19 18:36:00,
2013-04-19 14:41:00,75.1,65.5,29.72,WSW,245,9.2,9.2,72,0.00,CLR,,0.00,WeatherDisplay:10.37,2013-04-19 18:41:00,
2013-04-19 14:46:00,75.1,65.1,29.73,WSW,246,23.0,23.0,71,0.00,CLR,,0.00,WeatherDisplay:10.37,2013-04-19 18:46:00,
2013-04-19 14:51:00,74.9,65.7,29.73,SW,236,13.8,13.8,73,0.00,CLR,,0.00,WeatherDisplay:10.37,2013-04-19 18:51:00,
2013-04-19 14:56:00,74.4,66.0,29.74,West,261,11.5,11.5,75,0.00,CLR,,0.00,WeatherDisplay:10.37,2013-04-19 18:56:00,
2013-04-19 15:01:00,73.3,66.4,29.77,West,275,26.5,26.5,79,0.03,RA,,0.04,WeatherDisplay:10.37,2013-04-19 19:01:00,
2013-04-19 15:06:00,70.9,65.1,29.77,WSW,246,27.6,27.6,82,0.08,RA,,0.09,WeatherDisplay:10.37,2013-04-19 19:06:00,
2013-04-19 15:11:00,69.5,64.5,29.75,WSW,238,31.1,31.1,84,0.14,RA,,0.15,WeatherDisplay:10.37,2013-04-19 19:11:00,
2013-04-19 15:16:00,68.7,64.3,29.75,SW,223,21.0,21.0,86,0.16,RA,,0.16,WeatherDisplay:10.37,2013-04-19 19:16:00,
2013-04-19 15:21:00,68.4,64.7,29.75,SW,227,16.1,16.1,88,0.16,RA,,0.16,WeatherDisplay:10.37,2013-04-19 19:21:00,
2013-04-19 15:26:00,68.1,64.7,29.75,SW,219,17.3,17.3,89,0.17,RA,,0.17,WeatherDisplay:10.37,2013-04-19 19:26:00,
2013-04-19 15:31:00,68.0,65.0,29.74,WSW,252,19.6,19.6,90,0.17,RA,,0.17,WeatherDisplay:10.37,2013-04-19 19:31:00,
2013-04-19 15:36:00,67.9,64.9,29.74,WSW,249,12.7,12.7,90,0.17,CLR,,0.17,WeatherDisplay:10.37,2013-04-19 19:36:00,
2013-04-19 15:41:00,67.9,65.2,29.74,WSW,246,11.0,11.8,91,0.17,CLR,,0.17,WeatherDisplay:10.37,2013-04-19 19:41:00,
2013-04-19 15:46:00,68.0,65.3,29.75,WSW,257,17.3,17.3,91,0.17,CLR,,0.17,WeatherDisplay:10.37,2013-04-19 19:46:00,
2013-04-19 15:51:00,68.2,65.8,29.74,WSW,250,13.8,13.8,92,0.17,CLR,,0.17,WeatherDisplay:10.37,2013-04-19 19:51:00,
2013-04-19 15:56:00,68.4,65.7,29.74,WSW,244,16.1,16.1,91,0.17,CLR,,0.17,WeatherDisplay:10.37,2013-04-19 19:56:00,
2013-04-19 16:01:00,68.5,65.8,29.74,WSW,242,18.4,18.4,91,0.14,CLR,,0.17,WeatherDisplay:10.37,2013-04-19 20:01:00,
2013-04-19 16:06:00,68.6,65.9,29.73,West,261,12.7,12.7,91,0.09,CLR,,0.18,WeatherDisplay:10.37,2013-04-19 20:06:00,
2013-04-19 16:11:00,68.7,65.6,29.73,SW,226,25.3,25.3,90,0.04,RA,,0.18,WeatherDisplay:10.37,2013-04-19 20:11:00,
2013-04-19 16:16:00,68.8,65.7,29.73,West,259,16.1,16.1,90,0.02,RA,,0.19,WeatherDisplay:10.37,2013-04-19 20:16:00,
2013-04-19 16:21:00,68.7,65.6,29.72,SSW,207,15.0,15.0,90,0.03,RA,,0.19,WeatherDisplay:10.37,2013-04-19 20:21:00,
2013-04-19 16:26:00,68.6,65.9,29.72,WSW,247,10.0,10.0,91,0.03,RA,,0.20,WeatherDisplay:10.37,2013-04-19 20:26:00,
2013-04-19 16:31:00,68.5,65.8,29.72,SSW,202,15.0,15.0,91,0.03,RA,,0.20,WeatherDisplay:10.37,2013-04-19 20:31:00,
2013-04-19 16:36:00,68.4,65.7,29.73,SW,236,13.0,13.0,91,0.07,RA,,0.24,WeatherDisplay:10.37,2013-04-19 20:36:00,
2013-04-19 16:41:00,68.2,65.5,29.73,WSW,255,13.8,13.8,91,0.08,RA,,0.25,WeatherDisplay:10.37,2013-04-19 20:41:00,
2013-04-19 16:46:00,68.0,65.6,29.73,WSW,253,19.6,19.6,92,0.08,RA,,0.25,WeatherDisplay:10.37,2013-04-19 20:46:00,
2013-04-19 16:51:00,68.0,65.6,29.73,SW,218,16.1,16.1,92,0.09,RA,,0.26,WeatherDisplay:10.37,2013-04-19 20:51:00,
2013-04-19 16:56:00,67.8,65.4,29.73,South,176,20.7,20.7,92,0.09,RA,,0.26,WeatherDisplay:10.37,2013-04-19 20:56:00,
2013-04-19 17:01:00,67.6,64.9,29.74,WSW,240,19.6,19.6,91,0.10,RA,,0.27,WeatherDisplay:10.37,2013-04-19 21:01:00,
2013-04-19 17:06:00,67.3,64.3,29.74,WSW,253,17.3,17.3,90,0.11,RA,,0.28,WeatherDisplay:10.37,2013-04-19 21:06:00,
2013-04-19 17:11:00,67.0,64.0,29.73,WSW,251,20.7,20.7,90,0.11,RA,,0.29,WeatherDisplay:10.37,2013-04-19 21:11:00,
2013-04-19 17:16:00,66.8,63.8,29.73,SW,228,18.0,18.0,90,0.12,RA,,0.30,WeatherDisplay:10.37,2013-04-19 21:16:00,
2013-04-19 17:21:00,66.5,63.2,29.74,SSW,210,17.3,17.3,89,0.11,RA,,0.31,WeatherDisplay:10.37,2013-04-19 21:21:00,
2013-04-19 17:26:00,66.3,63.3,29.74,WNW,291,10.4,10.4,90,0.11,RA,,0.31,WeatherDisplay:10.37,2013-04-19 21:26:00,
2013-04-19 17:31:00,66.1,63.1,29.73,WSW,254,13.8,13.8,90,0.12,RA,,0.32,WeatherDisplay:10.37,2013-04-19 21:31:00,
2013-04-19 17:36:00,65.9,62.9,29.73,SW,226,12.7,12.7,90,0.08,RA,,0.32,WeatherDisplay:10.37,2013-04-19 21:36:00,
2013-04-19 17:41:00,65.8,63.1,29.73,SSW,206,9.2,9.2,91,0.07,,,0.32,WeatherDisplay:10.37,2013-04-19 21:41:00,
2013-04-19 17:46:00,65.8,63.1,29.72,SW,224,12.7,12.7,91,0.07,CLR,,0.32,WeatherDisplay:10.37,2013-04-19 21:46:00,
2013-04-19 17:51:00,65.7,63.0,29.72,WSW,248,10.4,10.4,91,0.06,CLR,,0.32,WeatherDisplay:10.37,2013-04-19 21:51:00,
2013-04-19 17:56:00,65.6,62.9,29.73,WSW,252,11.5,11.5,91,0.06,CLR,,0.32,WeatherDisplay:10.37,2013-04-19 21:56:00,
2013-04-19 18:01:00,65.5,62.8,29.72,WSW,254,11.5,11.5,91,0.05,CLR,,0.32,WeatherDisplay:10.37,2013-04-19 22:01:00,
2013-04-19 18:06:00,65.5,62.8,29.72,SW,236,10.4,10.4,91,0.04,CLR,,0.32,WeatherDisplay:10.37,2013-04-19 22:06:00,
2013-04-19 18:11:00,65.4,62.7,29.72,SW,235,11.5,11.5,91,0.03,CLR,,0.32,WeatherDisplay:10.37,2013-04-19 22:11:00,
2013-04-19 18:16:00,65.3,62.6,29.71,SW,222,9.2,9.2,91,0.02,CLR,,0.32,WeatherDisplay:10.37,2013-04-19 22:16:00,
2013-04-19 18:21:00,65.2,62.5,29.71,SW,217,5.8,5.8,91,0.02,CLR,,0.32,WeatherDisplay:10.37,2013-04-19 22:21:00,
2013-04-19 18:26:00,65.0,62.3,29.71,SW,221,12.7,12.7,91,0.01,CLR,,0.32,WeatherDisplay:10.37,2013-04-19 22:26:00,
2013-04-19 18:31:00,64.9,62.2,29.71,WSW,248,11.5,11.5,91,0.00,CLR,,0.32,WeatherDisplay:10.37,2013-04-19 22:31:00,
2013-04-19 18:36:00,64.8,62.1,29.71,SSW,212,7.0,7.0,91,0.00,CLR,,0.32,WeatherDisplay:10.37,2013-04-19 22:36:00,
2013-04-19 18:41:00,64.5,61.5,29.70,WSW,245,11.5,11.5,90,0.00,CLR,,0.32,WeatherDisplay:10.37,2013-04-19 22:41:00,
2013-04-19 18:46:00,64.4,61.4,29.71,WSW,238,13.8,13.8,90,0.00,CLR,,0.32,WeatherDisplay:10.37,2013-04-19 22:46:00,
2013-04-19 18:51:00,64.3,61.3,29.70,ESE,106,10.4,10.4,90,0.00,CLR,,0.32,WeatherDisplay:10.37,2013-04-19 22:51:00,
2013-04-19 18:56:00,64.2,61.2,29.70,WSW,244,12.0,12.0,90,0.00,CLR,,0.32,WeatherDisplay:10.37,2013-04-19 22:56:00,
2013-04-19 19:01:00,64.1,61.1,29.72,SW,215,11.5,11.5,90,0.00,CLR,,0.32,WeatherDisplay:10.37,2013-04-19 23:01:00,
2013-04-19 19:06:00,64.0,60.7,29.72,SW,231,11.5,11.5,89,0.00,CLR,,0.32,WeatherDisplay:10.37,2013-04-19 23:06:00,
2013-04-19 19:11:00,63.8,60.5,29.71,SW,227,12.7,12.7,89,0.01,RA,,0.33,WeatherDisplay:10.37,2013-04-19 23:11:00,
2013-04-19 19:16:00,63.7,60.1,29.70,SW,226,15.0,15.0,88,0.01,RA,,0.33,WeatherDisplay:10.37,2013-04-19 23:16:00,
2013-04-19 19:21:00,63.6,60.0,29.70,SSW,200,11.5,11.5,88,0.01,CLR,,0.33,WeatherDisplay:10.37,2013-04-19 23:21:00,
2013-04-19 19:26:00,63.5,59.2,29.70,WSW,237,11.5,11.5,86,0.01,CLR,,0.33,WeatherDisplay:10.37,2013-04-19 23:26:00,
2013-04-19 19:31:00,63.4,59.1,29.70,SW,225,10.0,10.0,86,0.01,CLR,,0.33,WeatherDisplay:10.37,2013-04-19 23:31:00,
2013-04-19 19:36:00,63.1,58.8,29.71,WSW,256,12.7,12.7,86,0.01,CLR,,0.33,WeatherDisplay:10.37,2013-04-19 23:36:00,
2013-04-19 19:41:00,63.0,58.4,29.72,WSW,238,13.8,13.8,85,0.01,CLR,,0.33,WeatherDisplay:10.37,2013-04-19 23:41:00,
2013-04-19 19:46:00,62.8,57.9,29.72,SW,234,12.7,12.7,84,0.01,CLR,,0.33,WeatherDisplay:10.37,2013-04-19 23:46:00,
2013-04-19 19:51:00,62.5,57.6,29.73,WSW,241,11.5,11.5,84,0.01,CLR,,0.33,WeatherDisplay:10.37,2013-04-19 23:51:00,
2013-04-19 19:56:00,62.3,57.7,29.74,West,262,10.4,10.4,85,0.01,CLR,,0.33,WeatherDisplay:10.37,2013-04-19 23:56:00,
2013-04-19 20:01:00,62.0,57.4,29.73,SW,222,11.5,11.5,85,0.01,CLR,,0.33,WeatherDisplay:10.37,2013-04-20 00:01:00,
2013-04-19 20:06:00,61.6,57.0,29.72,SW,215,8.1,8.1,85,0.01,CLR,,0.33,WeatherDisplay:10.37,2013-04-20 00:06:00,
2013-04-19 20:11:00,61.5,56.9,29.72,SSW,207,10.4,10.4,85,0.00,CLR,,0.33,WeatherDisplay:10.37,2013-04-20 00:11:00,
2013-04-19 20:16:00,61.3,57.1,29.73,SW,227,9.2,9.2,86,0.00,CLR,,0.33,WeatherDisplay:10.37,2013-04-20 00:16:00,
2013-04-19 20:21:00,61.3,57.4,29.73,SW,227,9.2,9.2,87,0.00,CLR,,0.33,WeatherDisplay:10.37,2013-04-20 00:21:00,
2013-04-19 20:26:00,61.1,57.2,29.74,SW,230,10.4,10.4,87,0.00,CLR,,0.33,WeatherDisplay:10.37,2013-04-20 00:26:00,
2013-04-19 20:31:00,61.0,57.1,29.74,SSW,193,6.0,6.0,87,0.00,CLR,,0.33,WeatherDisplay:10.37,2013-04-20 00:31:00,
2013-04-19 20:36:00,60.8,56.6,29.74,SW,222,11.5,11.5,86,0.00,CLR,,0.33,WeatherDisplay:10.37,2013-04-20 00:36:00,
2013-04-19 20:41:00,60.7,56.5,29.74,SW,221,5.8,5.8,86,0.00,CLR,,0.33,WeatherDisplay:10.37,2013-04-20 00:41:00,
2013-04-19 20:46:00,60.5,56.0,29.74,WSW,246,10.4,10.4,85,0.00,CLR,,0.33,WeatherDisplay:10.37,2013-04-20 00:46:00,
2013-04-19 20:51:00,60.2,55.3,29.76,WSW,244,11.5,11.5,84,0.00,CLR,,0.33,WeatherDisplay:10.37,2013-04-20 00:51:00,
2013-04-19 20:56:00,60.0,55.2,29.77,WSW,251,19.0,19.0,84,0.00,CLR,,0.33,WeatherDisplay:10.37,2013-04-20 00:56:00,
2013-04-19 21:01:00,59.8,55.0,29.77,West,271,10.4,10.4,84,0.00,CLR,,0.33,WeatherDisplay:10.37,2013-04-20 01:01:00,
2013-04-19 21:06:00,59.6,54.4,29.78,WSW,247,9.2,9.2,83,0.00,CLR,,0.33,WeatherDisplay:10.37,2013-04-20 01:06:00,
2013-04-19 21:11:00,59.3,54.5,29.79,WSW,238,5.8,5.8,84,0.00,CLR,,0.33,WeatherDisplay:10.37,2013-04-20 01:11:00,
2013-04-19 21:16:00,59.0,54.2,29.78,SW,236,18.4,18.4,84,0.00,CLR,,0.33,WeatherDisplay:10.37,2013-04-20 01:16:00,
2013-04-19 21:21:00,59.0,54.2,29.78,WSW,238,10.4,10.4,84,0.00,CLR,,0.33,WeatherDisplay:10.37,2013-04-20 01:21:00,
2013-04-19 21:26:00,59.0,54.2,29.79,WSW,253,8.1,8.1,84,0.00,CLR,,0.33,WeatherDisplay:10.37,2013-04-20 01:26:00,
2013-04-19 21:31:00,58.8,53.6,29.79,SW,215,11.5,11.5,83,0.00,CLR,,0.33,WeatherDisplay:10.37,2013-04-20 01:31:00,
2013-04-19 21:36:00,58.6,53.5,29.80,WSW,240,12.7,12.7,83,0.00,CLR,,0.33,WeatherDisplay:10.37,2013-04-20 01:36:00,
2013-04-19 21:41:00,58.4,53.3,29.80,SSW,206,11.5,11.5,83,0.00,CLR,,0.33,WeatherDisplay:10.37,2013-04-20 01:41:00,
2013-04-19 21:46:00,58.1,53.3,29.80,West,261,13.0,13.0,84,0.00,CLR,,0.33,WeatherDisplay:10.37,2013-04-20 01:46:00,
2013-04-19 21:51:00,57.9,53.1,29.80,SW,227,8.1,8.1,84,0.00,CLR,,0.33,WeatherDisplay:10.37,2013-04-20 01:51:00,
2013-04-19 21:56:00,57.7,53.2,29.80,WSW,243,9.2,9.2,85,0.00,CLR,,0.33,WeatherDisplay:10.37,2013-04-20 01:56:00,
2013-04-19 22:01:00,57.5,53.0,29.80,WSW,240,9.0,9.0,85,0.00,CLR,,0.33,WeatherDisplay:10.37,2013-04-20 02:01:00,
2013-04-19 22:06:00,57.3,53.1,29.81,WSW,238,9.2,9.5,86,0.00,CLR,,0.33,WeatherDisplay:10.37,2013-04-20 02:06:00,
2013-04-19 22:11:00,57.1,53.3,29.82,West,263,17.0,17.0,87,0.00,CLR,,0.33,WeatherDisplay:10.37,2013-04-20 02:11:00,
2013-04-19 22:16:00,56.9,53.1,29.82,WSW,245,10.4,10.4,87,0.00,CLR,,0.33,WeatherDisplay:10.37,2013-04-20 02:16:00,
2013-04-19 22:21:00,56.8,53.3,29.82,SW,234,19.6,19.6,88,0.00,CLR,,0.33,WeatherDisplay:10.37,2013-04-20 02:21:00,
2013-04-19 22:26:00,56.7,53.2,29.83,WSW,254,11.5,11.5,88,0.00,CLR,,0.33,WeatherDisplay:10.37,2013-04-20 02:26:00,
2013-04-19 22:31:00,56.6,53.4,29.83,WSW,246,11.5,11.5,89,0.00,CLR,,0.33,WeatherDisplay:10.37,2013-04-20 02:31:00,
2013-04-19 22:36:00,56.5,53.3,29.83,West,266,6.9,6.9,89,0.00,CLR,,0.33,WeatherDisplay:10.37,2013-04-20 02:36:00,
2013-04-19 22:41:00,56.4,53.5,29.84,WSW,240,7.0,7.0,90,0.00,CLR,,0.33,WeatherDisplay:10.37,2013-04-20 02:41:00,
2013-04-19 22:46:00,56.3,53.4,29.85,West,259,8.0,8.0,90,0.00,CLR,,0.33,WeatherDisplay:10.37,2013-04-20 02:46:00,
2013-04-19 22:51:00,56.2,53.3,29.85,WSW,257,11.5,11.5,90,0.00,CLR,,0.33,WeatherDisplay:10.37,2013-04-20 02:51:00,
2013-04-19 22:56:00,56.2,53.3,29.85,West,265,10.4,10.4,90,0.00,CLR,,0.33,WeatherDisplay:10.37,2013-04-20 02:56:00,
2013-04-19 23:01:00,56.0,53.1,29.86,West,268,15.0,15.0,90,0.00,CLR,,0.33,WeatherDisplay:10.37,2013-04-20 03:01:00,
2013-04-19 23:06:00,56.0,53.4,29.86,WSW,244,7.0,7.0,91,0.00,CLR,,0.33,WeatherDisplay:10.37,2013-04-20 03:06:00,
2013-04-19 23:11:00,55.9,53.3,29.85,WSW,246,11.5,11.5,91,0.00,CLR,,0.33,WeatherDisplay:10.37,2013-04-20 03:11:00,
2013-04-19 23:16:00,55.7,52.8,29.86,West,281,10.4,10.4,90,0.00,CLR,,0.33,WeatherDisplay:10.37,2013-04-20 03:16:00,
2013-04-19 23:21:00,55.6,47.1,29.86,West,279,15.0,15.0,73,0.00,CLR,,0.33,WeatherDisplay:10.37,2013-04-20 03:21:00,
2013-04-19 23:26:00,55.9,44.7,29.86,WNW,292,11.5,11.5,66,0.00,CLR,,0.33,WeatherDisplay:10.37,2013-04-20 03:26:00,
2013-04-19 23:31:00,56.1,44.5,29.87,NW,317,11.5,11.5,65,0.00,CLR,,0.33,WeatherDisplay:10.37,2013-04-20 03:31:00,
2013-04-19 23:36:00,56.0,44.4,29.88,WNW,294,9.2,9.2,65,0.00,CLR,,0.33,WeatherDisplay:10.37,2013-04-20 03:36:00,
2013-04-19 23:41:00,55.9,43.5,29.88,NNW,333,13.8,13.8,63,0.00,CLR,,0.33,WeatherDisplay:10.37,2013-04-20 03:41:00,
2013-04-19 23:46:00,55.6,42.4,29.88,NNW,344,10.0,10.0,61,0.00,CLR,,0.33,WeatherDisplay:10.37,2013-04-20 03:46:00,
2013-04-19 23:51:00,55.3,42.1,29.88,NNW,330,10.0,10.0,61,0.00,CLR,,0.33,WeatherDisplay:10.37,2013-04-20 03:51:00,
2013-04-19 23:56:00,54.8,41.6,29.89,NNW,327,9.2,9.2,61,0.00,CLR,,0.33,WeatherDisplay:10.37,2013-04-20 03:56:00,